TimeEDT,TemperatureF,Dew PointF,Humidity,Sea Level PressureIn,VisibilityMPH,Wind Direction,Wind SpeedMPH,Gust SpeedMPH,PrecipitationIn,Events,Conditions,WindDirDegrees,DateUTC
12:51 AM,43.0,42.1,97,30.26,10.0,Calm,Calm,-,N/A,,Clear,0,2012-10-26 04:51:00
1:51 AM,43.0,42.1,97,30.26,10.0,Calm,Calm,-,N/A,,Clear,0,2012-10-26 05:51:00
2:51 AM,42.1,41.0,96,30.26,9.0,Calm,Calm,-,N/A,,Clear,0,2012-10-26 06:51:00
3:51 AM,41.0,39.9,96,30.25,10.0,Calm,Calm,-,N/A,,Mostly Cloudy,0,2012-10-26 07:51:00
4:29 AM,41.0,39.2,93,30.24,9.0,Calm,Calm,-,N/A,,Mostly Cloudy,0,2012-10-26 08:29:00
4:51 AM,39.9,39.9,100,30.24,10.0,Calm,Calm,-,N/A,,Overcast,0,2012-10-26 08:51:00
5:48 AM,42.8,41.0,93,30.22,10.0,Calm,Calm,-,N/A,,Overcast,0,2012-10-26 09:48:00
5:51 AM,42.1,41.0,96,30.23,10.0,Calm,Calm,-,N/A,,Overcast,0,2012-10-26 09:51:00
6:46 AM,42.8,42.8,100,30.21,10.0,Calm,Calm,-,N/A,,Overcast,0,2012-10-26 10:46:00
6:51 AM,44.1,43.0,96,30.22,10.0,Calm,Calm,-,N/A,,Overcast,0,2012-10-26 10:51:00
7:51 AM,45.0,43.0,93,30.22,10.0,NE,3.5,-,N/A,,Overcast,40,2012-10-26 11:51:00
8:51 AM,46.0,44.1,93,30.25,10.0,Calm,Calm,-,N/A,,Overcast,0,2012-10-26 12:51:00
9:51 AM,48.9,44.1,83,30.25,10.0,Calm,Calm,-,N/A,,Overcast,0,2012-10-26 13:51:00
10:51 AM,52.0,46.0,80,30.24,10.0,Calm,Calm,-,N/A,,Overcast,0,2012-10-26 14:51:00
11:51 AM,55.0,48.0,77,30.23,10.0,Calm,Calm,-,N/A,,Overcast,0,2012-10-26 15:51:00
12:31 PM,57.2,48.2,72,30.20,10.0,Variable,3.5,-,N/A,,Overcast,0,2012-10-26 16:31:00
12:51 PM,59.0,48.9,69,30.20,10.0,SSW,3.5,-,N/A,,Overcast,200,2012-10-26 16:51:00
1:08 PM,59.0,48.2,67,30.19,10.0,Calm,Calm,-,N/A,,Scattered Clouds,0,2012-10-26 17:08:00
1:51 PM,61.0,50.0,67,30.18,10.0,Calm,Calm,-,N/A,,Clear,0,2012-10-26 17:51:00
2:51 PM,63.0,50.0,63,30.16,10.0,Calm,Calm,-,N/A,,Clear,0,2012-10-26 18:51:00
3:51 PM,64.0,50.0,60,30.14,10.0,Calm,Calm,-,N/A,,Clear,0,2012-10-26 19:51:00
4:51 PM,64.0,51.1,63,30.13,10.0,ESE,4.6,-,N/A,,Clear,120,2012-10-26 20:51:00
5:51 PM,60.1,51.1,72,30.13,10.0,East,3.5,-,N/A,,Clear,100,2012-10-26 21:51:00
6:51 PM,53.1,50.0,89,30.14,10.0,Calm,Calm,-,N/A,,Clear,0,2012-10-26 22:51:00
7:51 PM,52.0,50.0,93,30.14,10.0,Calm,Calm,-,N/A,,Clear,0,2012-10-26 23:51:00
8:51 PM,51.1,48.9,92,30.14,8.0,Calm,Calm,-,N/A,,Clear,0,2012-10-27 00:51:00
9:51 PM,46.9,46.9,100,30.15,6.0,Calm,Calm,-,N/A,,Clear,0,2012-10-27 01:51:00
10:51 PM,46.9,46.0,97,30.15,5.0,Calm,Calm,-,N/A,,Clear,0,2012-10-27 02:51:00
11:15 PM,46.4,46.4,100,30.14,1.5,Calm,Calm,-,N/A,,Clear,0,2012-10-27 03:15:00
11:17 PM,46.4,44.6,93,30.14,0.8,Calm,Calm,-,N/A,,Clear,0,2012-10-27 03:17:00
11:28 PM,44.6,44.6,100,30.14,1.5,Calm,Calm,-,N/A,,Clear,0,2012-10-27 03:28:00
11:35 PM,44.6,44.6,100,30.14,0.8,Calm,Calm,-,N/A,,Clear,0,2012-10-27 03:35:00
11:49 PM,44.6,44.6,100,30.14,1.5,Calm,Calm,-,N/A,,Clear,0,2012-10-27 03:49:00
11:51 PM,45.0,44.1,97,30.14,2.0,Calm,Calm,-,N/A,,Clear,0,2012-10-27 03:51:00
11:59 PM,44.6,44.6,100,30.14,3.0,Calm,Calm,-,N/A,,Clear,0,2012-10-27 03:59:00